Regional Weather Roundup
Issued by NWS

Home | Current Version | Previous Version | Graphics & Text | Print | Product List | Glossary On
Versions: 1 2 3 4 5 6 7 8 9 10 11 12 13 14 15 16 17 18 19 20 21 22 23 24 25 26 27 28 29 30 31 32 33 34 35 36 37 38 39 40 41 42 43 44 45 46 47 48 49 50
000
ASUS43 KFSD 240610
RWRSD

WEATHER ROUNDUP FOR SOUTH DAKOTA
NATIONAL WEATHER SERVICE SIOUX FALLS SD
1200 AM CST TUE JAN 24 2017

NOTE: "FAIR" INDICATES FEW OR NO CLOUDS BELOW 12,000 FEET WITH NO
SIGNIFICANT WEATHER AND/OR OBSTRUCTIONS TO VISIBILITY.


SDZ001>005-009-010-012>017-240700-
NORTHWEST AND NORTH CENTRAL SOUTH DAKOTA

CITY           SKY/WX    TMP DP  RH WIND       PRES   REMARKS
BUFFALO          N/A     24  20  84 NE8       29.69S WCI  15
FAITH            N/A     25  24  96 NE14      29.73F WCI  13
MOBRIDGE       FLURRIES  28  23  81 NE8       29.78S WCI  20
$$

SDZ012>016-024>037-041>051-057-063-072>074-240700-
SOUTHWEST AND SOUTH CENTRAL SOUTH DAKOTA

CITY           SKY/WX    TMP DP  RH WIND       PRES   REMARKS
RAPID CTY ARPT CLOUDY    23  21  92 N15       29.71S FOG     WCI  10
PIERRE         CLOUDY    29  26  89 E10       29.75F WCI  20
CUSTER         CLOUDY    22  19  89 NE6       29.58R WCI  14
ELLSWORTH AFB  FOG       23  23 100 N8        29.71R VSB 5/8 WCI  14
PHILIP         CLOUDY    28  27  96 NE10      29.72F FOG     WCI  19
PINE RIDGE     CLOUDY    26  25  96 N9        29.67S FOG     WCI  17
SPEARFISH      FOG       21  19  93 CALM      29.70S VSB 1/4
WINNER         CLOUDY    32  30  92 E7        29.73R WCI  26
$$

SDZ004>011-016>023-039-040-240700-
NORTHEAST SOUTH DAKOTA

CITY           SKY/WX    TMP DP  RH WIND       PRES   REMARKS
ABERDEEN       CLOUDY    29  25  85 N3        29.84S FOG
WATERTOWN      CLOUDY    28  26  92 SE6       29.79F WCI  22
BROOKINGS      CLOUDY    30  27  88 SE6       29.80F WCI  24
SISSETON         N/A     32  29  88 CALM      29.84R
$$

SDZ017-020-022-023-036>040-048>070-240700-
SOUTHEAST SOUTH DAKOTA

CITY           SKY/WX    TMP DP  RH WIND       PRES   REMARKS
SIOUX FALLS    CLOUDY    32  30  92 SE8       29.81S WCI  25
HURON          CLOUDY    31  29  92 SE3       29.80F
CHAMBERLAIN    CLOUDY    32  31  96 E6        29.76S WCI  26
MITCHELL       CLOUDY    32  29  88 SE6       29.81R WCI  26
YANKTON        CLOUDY    30  28  93 E6        29.79S WCI  24
$$

ABBREVIATIONS USED IN REMARKS
   TC - TEMPERATURE IN CELSIUS
  WCI - WIND CHILL INDEX
   HX - HEAT INDEX
  VSB - VISIBILITY




USA.gov is the U.S. government's official web portal to all federal, state and local government web resources and services.